Orbital Elements at Epoch 2459000.5 (2020-May-31.0) TDB
Reference: JPL 15 (heliocentric ecliptic J2000)
Element | Value | Uncertainty (1-sigma) | Units |
e | .2036397014250433 | 6.8188e-08 | |
a | 2.255473179476525 | 7.7892e-09 | au |
q | 1.796169294635733 | 1.5332e-07 | au |
i | 4.309829653648438 | 4.9505e-06 | deg |
node | 79.00759160759925 | 9.0164e-05 | deg |
peri | 264.3660089716833 | 9.1429e-05 | deg |
M | 345.1131328589522 | 1.3611e-05 | deg |
tp | 2459051.662969063928 (2020-Jul-21.16296906) | 4.6773e-05 | TDB |
period | 1237.242778383372 3.39 | 6.4092e-06 1.755e-08 | d yr |
n | .2909695706370496 | 1.5073e-09 | deg/d |
Q | 2.714777064317318 | 9.3754e-09 | au |
|
| | Orbit Determination Parameters
Additional Information
|